Powrót do katalogu

FENGYUN 1C DEB

AktywnySSO
NORAD 30234·DEBRIS·🇨🇳 China

Wystrzelony May 10, 1999 z Taiyuan Satellite Launch Center

Loading…

Następne Przeloty (najbliższe 24 godziny)

TLE

ŚwieżeSource: Space-Track

Epoka: Sep 14, 2026, 11:21 UTC

1 30234U 99025WT  26257.47308931  .00000367  00000-0  19909-3 0  9991
2 30234  98.6309 265.2159 0065951   3.6291 160.6310 14.17193410 13592

Śledź FENGYUN 1C DEB w czasie rzeczywistym z AllMySat

Download on the App Store